Location: Central Falls
(41.8900°N, 71.3929°W)
Time: 07:04:39
(UTC+00:00)

Vanguard 3 - Pass Details

Date: 04 December 2023
Orbit: 508 x 3239 km, 33.4° (Epoch: 01 March)

Event Time Altitude Azimuth Distance (km) Brightness Sun altitude
Rises 01:37:20 0° 221° (SW) 6,491 12.0 -48.0°
Reaches altitude 10° 01:42:58 10° 212° (SSW) 5,045 11.3 -49.0°
Enters shadow 01:47:13 19° 200° (SSW) 3,978 10.6 -49.8°
